| time (UTC) | temp C | wind direction | speed KPH | gust KPH | rain 1hr cm | rain 24hr cm | rain mn cm | humidity % | barometer mb |
| 20260506070505 | 14 | 73 | 11.3 | 29.0 | 0.15 | 2.90 | 2.87 | 82 | 1009.1 |
| 20260506062505 | 13 | 145 | 8.0 | 24.1 | 0.15 | 3.07 | 2.87 | 82 | 1009.6 |
| 20260506062005 | 13 | 204 | 6.4 | 17.7 | 0.15 | 3.25 | 2.87 | 82 | 1009.6 |
| 20260506061505 | 13 | 85 | 6.4 | 17.7 | 0.15 | 3.35 | 2.84 | 82 | 1009.4 |
| 20260506061257 | 13 | 187 | 4.8 | 17.7 | 0.00 | 3.45 | 2.72 | 82 | 1009.6 |
| 20260506060504 | 12 | 172 | 3.2 | 9.7 | 0.00 | 3.71 | 2.72 | 82 | 1009.6 |
| 20260506050958 | 13 | 293 | 3.2 | 11.3 | 0.28 | 4.11 | 2.72 | 82 | 1009.6 |
| 20260506050738 | 13 | 262 | 3.2 | 12.9 | 0.28 | 4.19 | 2.72 | 82 | 1009.7 |
| 20260506044953 | 12 | 249 | 1.6 | 8.0 | 0.28 | 4.42 | 2.72 | 81 | 1009.9 |
| 20260506044454 | 12 | 155 | 0.0 | 3.2 | 0.28 | 4.47 | 2.72 | 81 | 1010.0 |
| 20260506043954 | 13 | 199 | 1.6 | 8.0 | 0.28 | 4.47 | 2.72 | 81 | 1009.8 |
| 20260506043453 | 13 | 226 | 4.8 | 17.7 | 0.28 | 4.52 | 2.72 | 82 | 1009.7 |
| 20260506043251 | 12 | 195 | 3.2 | 14.5 | 0.18 | 4.60 | 2.59 | 81 | 1010.1 |
| 20260506043209 | 13 | 178 | 4.8 | 17.7 | 0.25 | 4.57 | 2.69 | 82 | 1010.0 |
| 20260506041951 | 12 | 289 | 3.2 | 4.8 | 0.03 | 4.65 | 2.46 | 81 | 1009.8 |
| 20260506041449 | 12 | 287 | 3.2 | 6.4 | 0.00 | 4.83 | 2.44 | 81 | 1009.8 |
| 20260506040948 | 12 | 285 | 1.6 | 6.4 | 0.03 | 4.90 | 2.44 | 81 | 1010.1 |
| 20260506040451 | 12 | 320 | 0.0 | 4.8 | 0.03 | 4.93 | 2.44 | 81 | 1010.1 |
| 20260506035948 | 12 | 320 | 0.0 | 1.6 | 0.03 | 4.93 | 2.44 | 81 | 1010.1 |
| 20260506035727 | 12 | 320 | 1.6 | 3.2 | 0.05 | 4.95 | 2.44 | 81 | 1010.2 |
| 20260506034948 | 12 | 320 | 1.6 | 4.8 | 0.23 | 5.00 | 2.44 | 81 | 1010.3 |
| 20260506034445 | 12 | 320 | 1.6 | 4.8 | 0.61 | 5.11 | 2.44 | 80 | 1010.4 |
| 20260506033946 | 12 | 320 | 1.6 | 4.8 | 1.09 | 5.16 | 2.44 | 80 | 1010.3 |
| 20260506033444 | 12 | 320 | 3.2 | 6.4 | 1.35 | 5.23 | 2.44 | 80 | 1010.1 |
| 20260506033227 | 12 | 334 | 3.2 | 6.4 | 1.45 | 5.28 | 2.44 | 80 | 1010.1 |
| 20260506032441 | 12 | 354 | 3.2 | 6.4 | 1.50 | 5.31 | 2.44 | 80 | 1010.2 |
| 20260506031940 | 12 | 20 | 3.2 | 9.7 | 1.57 | 5.31 | 2.44 | 80 | 1010.3 |
| 20260506031437 | 12 | 21 | 1.6 | 9.7 | 1.63 | 5.31 | 2.41 | 80 | 1010.2 |
| 20260506031218 | 12 | 229 | 3.2 | 9.7 | 1.80 | 3.53 | 2.39 | 80 | 1010.1 |
| 20260506031212 | 12 | 110 | 3.2 | 9.7 | 2.06 | 3.53 | 2.21 | 80 | 1010.6 |
| 20260506031204 | 12 | 316 | 3.2 | 8.0 | 1.70 | 3.58 | 1.78 | 80 | 1010.5 |
| 20260506031155 | 12 | 302 | 3.2 | 6.4 | 1.22 | 3.63 | 1.32 | 80 | 1010.0 |
| 20260506031121 | 12 | 300 | 0.0 | 4.8 | 1.65 | 5.31 | 2.41 | 80 | 1010.4 |
| 20260506031019 | 12 | 29 | 1.6 | 6.4 | 1.75 | 5.31 | 2.41 | 80 | 1010.4 |
| 20260506030331 | 12 | 21 | 3.2 | 9.7 | 1.85 | 3.53 | 2.39 | 80 | 1010.3 |
| 20260506023831 | 12 | 14 | 3.2 | 6.4 | 0.99 | 3.68 | 1.09 | 79 | 1010.1 |
| 20260506022927 | 12 | 219 | 3.2 | 9.7 | 0.91 | 3.71 | 0.99 | 79 | 1009.9 |
| 20260506022715 | 12 | 354 | 3.2 | 12.9 | 0.89 | 3.76 | 0.91 | 79 | 1009.9 |
| 20260506021927 | 12 | 24 | 3.2 | 12.9 | 0.81 | 3.78 | 0.84 | 79 | 1010.2 |
| 20260506021426 | 12 | 354 | 1.6 | 4.8 | 0.76 | 3.81 | 0.79 | 78 | 1010.4 |
| 20260506020926 | 12 | 69 | 1.6 | 4.8 | 0.74 | 3.84 | 0.74 | 78 | 1010.3 |
| 20260506020427 | 12 | 173 | 0.0 | 3.2 | 0.69 | 3.86 | 0.69 | 78 | 1010.6 |
| 20260506020217 | 12 | 173 | 1.6 | 4.8 | 0.61 | 3.25 | 0.61 | 78 | 1010.3 |
| 20260506015523 | 13 | 308 | 0.0 | 1.6 | 0.15 | 3.30 | 0.15 | 78 | 1010.7 |
| 20260506015505 | 12 | 173 | 1.6 | 4.8 | 0.51 | 3.28 | 0.51 | 78 | 1010.5 |
| 20260506014426 | 13 | 308 | 1.6 | 3.2 | 0.15 | 3.33 | 0.15 | 78 | 1010.5 |
| 20260506013926 | 13 | 308 | 1.6 | 4.8 | 0.15 | 3.33 | 0.13 | 77 | 1010.5 |
| 20260506013426 | 13 | 308 | 1.6 | 4.8 | 0.13 | 3.33 | 0.13 | 77 | 1010.7 |
| 20260506013217 | 13 | 307 | 1.6 | 3.2 | 0.08 | 3.33 | 0.08 | 77 | 1011.0 |
| 20260506012422 | 13 | 307 | 1.6 | 3.2 | 0.05 | 3.33 | 0.05 | 77 | 1011.0 |
| 20260506011923 | 13 | 307 | 1.6 | 3.2 | 0.05 | 3.35 | 0.05 | 77 | 1011.1 |
| 20260506011800 | 13 | 307 | 1.6 | 4.8 | 0.03 | 3.40 | 0.03 | 76 | 1011.2 |
| 20260506011439 | 13 | 307 | 1.6 | 4.8 | 0.05 | 3.38 | 0.05 | 77 | 1011.1 |
| 20260506010422 | 13 | 302 | 1.6 | 3.2 | 0.00 | 3.43 | 0.00 | 76 | 1011.3 |
| 20260506005923 | 13 | 301 | 1.6 | 3.2 | 0.00 | 3.43 | 0.00 | 76 | 1011.3 |
| 20260506005420 | 13 | 301 | 1.6 | 3.2 | 0.00 | 3.43 | 0.00 | 76 | 1011.3 |
| 20260506005214 | 13 | 289 | 1.6 | 4.8 | 0.00 | 3.45 | 0.00 | 76 | 1011.4 |
| 20260506004421 | 13 | 289 | 1.6 | 6.4 | 0.00 | 3.45 | 0.00 | 76 | 1011.4 |
| 20260506003921 | 13 | 287 | 1.6 | 8.0 | 0.00 | 3.45 | 0.00 | 75 | 1011.5 |
| 20260506003420 | 13 | 298 | 1.6 | 8.0 | 0.00 | 3.45 | 0.00 | 75 | 1011.8 |
| 20260506002916 | 13 | 57 | 0.0 | 3.2 | 0.00 | 3.45 | 0.00 | 75 | 1011.8 |
| 20260506002416 | 13 | 57 | 0.0 | 3.2 | 0.00 | 3.45 | 0.00 | 74 | 1011.8 |
| 20260506001916 | 13 | 57 | 3.2 | 9.7 | 0.00 | 3.45 | 0.00 | 74 | 1011.7 |
| 20260506001416 | 13 | 79 | 3.2 | 9.7 | 0.00 | 3.45 | 0.00 | 74 | 1011.9 |
| 20260506000914 | 13 | 181 | 3.2 | 6.4 | 0.00 | 3.45 | 0.00 | 74 | 1011.8 |
| 20260506000416 | 13 | 326 | 3.2 | 4.8 | 0.00 | 3.45 | 0.00 | 74 | 1011.5 |
| 20260505235914 | 13 | 325 | 1.6 | 3.2 | 0.00 | 3.45 | 0.00 | 74 | 1011.7 |
| 20260505235416 | 13 | 325 | 1.6 | 4.8 | 0.00 | 3.45 | 0.00 | 74 | 1011.7 |
| 20260505234914 | 13 | 325 | 3.2 | 4.8 | 0.00 | 3.45 | 0.00 | 74 | 1011.8 |
| 20260505234416 | 13 | 325 | 3.2 | 4.8 | 0.00 | 3.45 | 0.00 | 74 | 1012.0 |
| 20260505233912 | 13 | 325 | 3.2 | 4.8 | 0.00 | 3.45 | 0.00 | 74 | 1012.1 |
| 20260505233412 | 13 | 324 | 3.2 | 4.8 | 0.00 | 3.45 | 0.00 | 74 | 1012.3 |
| 20260505232912 | 13 | 315 | 3.2 | 4.8 | 0.00 | 3.45 | 0.00 | 74 | 1012.2 |
| 20260505232411 | 13 | 313 | 1.6 | 3.2 | 0.00 | 3.45 | 0.00 | 74 | 1012.5 |
| 20260505231912 | 13 | 312 | 1.6 | 4.8 | 0.00 | 3.45 | 0.00 | 74 | 1012.5 |
| 20260505231406 | 13 | 312 | 1.6 | 4.8 | 0.00 | 3.45 | 0.00 | 74 | 1012.5 |
| 20260505230907 | 13 | 311 | 1.6 | 4.8 | 0.00 | 3.45 | 0.00 | 74 | 1012.6 |
| 20260505230407 | 13 | 311 | 1.6 | 4.8 | 0.00 | 3.45 | 0.00 | 74 | 1012.8 |
| 20260505225909 | 13 | 311 | 1.6 | 3.2 | 0.00 | 3.45 | 0.00 | 74 | 1012.8 |
| 20260505225407 | 13 | 311 | 1.6 | 3.2 | 0.00 | 3.45 | 0.00 | 74 | 1012.8 |
| 20260505224907 | 13 | 311 | 1.6 | 4.8 | 0.00 | 3.45 | 0.00 | 74 | 1012.9 |
| 20260505224411 | 13 | 311 | 1.6 | 4.8 | 0.00 | 3.45 | 0.00 | 74 | 1013.0 |
| 20260505223909 | 13 | 311 | 3.2 | 4.8 | 0.00 | 3.45 | 0.00 | 74 | 1013.1 |
| 20260505223408 | 13 | 310 | 3.2 | 4.8 | 0.00 | 3.45 | 0.00 | 74 | 1013.2 |
| 20260505222908 | 13 | 328 | 1.6 | 4.8 | 0.00 | 3.45 | 0.00 | 74 | 1013.2 |
| 20260505222659 | 13 | 328 | 1.6 | 3.2 | 0.00 | 3.45 | 0.00 | 74 | 1013.3 |
| 20260505221906 | 13 | 328 | 1.6 | 3.2 | 0.00 | 3.45 | 0.00 | 74 | 1013.3 |
| 20260505221407 | 13 | 328 | 1.6 | 3.2 | 0.00 | 3.45 | 0.00 | 74 | 1013.3 |
| 20260505220905 | 13 | 328 | 1.6 | 4.8 | 0.00 | 3.45 | 0.00 | 74 | 1013.3 |
| 20260505220404 | 13 | 328 | 1.6 | 4.8 | 0.00 | 3.45 | 0.00 | 74 | 1013.2 |
| 20260505215905 | 13 | 328 | 3.2 | 4.8 | 0.00 | 3.45 | 3.45 | 74 | 1013.2 |
| 20260505215406 | 13 | 328 | 3.2 | 6.4 | 0.00 | 3.45 | 3.45 | 74 | 1013.3 |
| 20260505215154 | 13 | 288 | 3.2 | 6.4 | 0.00 | 3.45 | 3.45 | 74 | 1013.4 |
| 20260505214405 | 13 | 288 | 3.2 | 6.4 | 0.00 | 3.45 | 3.45 | 75 | 1013.4 |
| 20260505214152 | 13 | 323 | 3.2 | 6.4 | 0.00 | 3.45 | 3.45 | 75 | 1013.4 |
| 20260505213402 | 13 | 323 | 3.2 | 6.4 | 0.00 | 3.45 | 3.45 | 75 | 1013.5 |
| 20260505212907 | 13 | 334 | 3.2 | 4.8 | 0.00 | 3.45 | 3.45 | 74 | 1013.5 |
| 20260505212407 | 13 | 334 | 3.2 | 4.8 | 0.00 | 3.45 | 3.45 | 74 | 1013.5 |
| 20260505211904 | 13 | 292 | 3.2 | 6.4 | 0.00 | 3.45 | 3.45 | 74 | 1013.5 |
| 20260505211405 | 13 | 291 | 3.2 | 6.4 | 0.00 | 3.45 | 3.45 | 74 | 1013.4 |
| 20260505210955 | 13 | 331 | 3.2 | 4.8 | 0.00 | 3.45 | 3.45 | 74 | 1013.6 |
| 20260505210941 | 13 | 330 | 3.2 | 4.8 | 0.00 | 3.45 | 3.45 | 74 | 1013.5 |
| 20260505210148 | 13 | 359 | 3.2 | 4.8 | 0.00 | 3.45 | 3.45 | 74 | 1013.6 |
| 20260505205653 | 13 | 303 | 1.6 | 4.8 | 0.00 | 3.45 | 3.45 | 74 | 1013.7 |
| 20260505204907 | 13 | 303 | 1.6 | 3.2 | 0.00 | 3.45 | 3.45 | 74 | 1013.7 |
| 20260505204641 | 13 | 303 | 1.6 | 3.2 | 0.00 | 3.45 | 3.45 | 74 | 1013.8 |
| 20260505203906 | 13 | 303 | 1.6 | 4.8 | 0.00 | 3.45 | 3.45 | 74 | 1013.9 |
| 20260505203404 | 13 | 303 | 3.2 | 4.8 | 0.00 | 3.45 | 3.45 | 74 | 1013.9 |
| 20260505202905 | 13 | 303 | 3.2 | 4.8 | 0.00 | 3.45 | 3.45 | 74 | 1014.0 |
| 20260505202405 | 13 | 292 | 1.6 | 6.4 | 0.00 | 3.45 | 3.45 | 74 | 1014.0 |
| 20260505201906 | 13 | 284 | 1.6 | 6.4 | 0.00 | 3.45 | 3.45 | 73 | 1014.0 |
| 20260505201402 | 13 | 257 | 1.6 | 4.8 | 0.00 | 3.45 | 3.45 | 73 | 1014.1 |
| 20260505201207 | 13 | 234 | 1.6 | 4.8 | 0.00 | 3.45 | 3.45 | 73 | 1014.1 |
| 20260505200401 | 13 | 235 | 1.6 | 6.4 | 0.00 | 3.45 | 3.45 | 73 | 1014.1 |
| 20260505195858 | 14 | 226 | 1.6 | 6.4 | 0.00 | 3.45 | 3.45 | 73 | 1014.0 |
| 20260505195355 | 14 | 157 | 1.6 | 6.4 | 0.00 | 3.45 | 3.45 | 73 | 1014.0 |
| 20260505194856 | 14 | 220 | 1.6 | 6.4 | 0.00 | 3.45 | 3.45 | 73 | 1014.0 |
| 20260505194358 | 14 | 210 | 1.6 | 6.4 | 0.00 | 3.45 | 3.45 | 73 | 1013.9 |
| 20260505193857 | 14 | 297 | 1.6 | 4.8 | 0.00 | 3.45 | 3.45 | 73 | 1013.8 |
| 20260505193355 | 13 | 297 | 1.6 | 4.8 | 0.00 | 3.45 | 3.45 | 73 | 1013.8 |
| 20260505193143 | 13 | 224 | 1.6 | 11.3 | 0.00 | 3.45 | 3.45 | 73 | 1013.8 |
| 20260505192353 | 13 | 201 | 1.6 | 11.3 | 0.00 | 3.45 | 3.45 | 73 | 1013.8 |
| 20260505191856 | 13 | 280 | 1.6 | 6.4 | 0.00 | 3.45 | 3.45 | 73 | 1013.7 |
| 20260505191354 | 13 | 280 | 1.6 | 6.4 | 0.00 | 3.45 | 3.45 | 73 | 1013.7 |
| 20260505190855 | 13 | 222 | 1.6 | 4.8 | 0.00 | 3.45 | 3.45 | 73 | 1013.7 |
| 20260505190353 | 14 | 307 | 1.6 | 11.3 | 0.00 | 3.45 | 3.45 | 73 | 1013.6 |
| 20260505185856 | 14 | 308 | 1.6 | 11.3 | 0.00 | 3.45 | 3.45 | 72 | 1013.6 |
| 20260505185354 | 14 | 208 | 1.6 | 6.4 | 0.00 | 3.45 | 3.45 | 72 | 1013.6 |
| 20260505184854 | 14 | 276 | 1.6 | 8.0 | 0.00 | 3.45 | 3.45 | 73 | 1013.6 |
| 20260505184354 | 14 | 238 | 3.2 | 11.3 | 0.00 | 3.45 | 3.45 | 72 | 1013.6 |
| 20260505183854 | 14 | 170 | 1.6 | 11.3 | 0.00 | 3.45 | 3.45 | 72 | 1013.7 |
| 20260505183639 | 14 | 144 | 1.6 | 8.0 | 0.00 | 3.45 | 3.45 | 72 | 1013.7 |
| 20260505182851 | 14 | 144 | 1.6 | 8.0 | 0.00 | 3.45 | 3.45 | 72 | 1013.6 |
| 20260505182353 | 14 | 125 | 1.6 | 4.8 | 0.00 | 3.45 | 3.45 | 73 | 1013.7 |
| 20260505182136 | 14 | 202 | 1.6 | 4.8 | 0.00 | 3.45 | 3.45 | 73 | 1013.6 |
| 20260505181351 | 14 | 201 | 1.6 | 6.4 | 0.00 | 3.45 | 3.45 | 73 | 1013.6 |
| 20260505180852 | 14 | 91 | 1.6 | 6.4 | 0.00 | 3.45 | 3.45 | 73 | 1013.6 |
| 20260505180352 | 14 | 115 | 3.2 | 6.4 | 0.00 | 3.45 | 3.45 | 72 | 1013.7 |
| 20260505180144 | 14 | 139 | 3.2 | 9.7 | 0.00 | 3.45 | 3.45 | 72 | 1013.7 |
| 20260505175631 | 14 | 116 | 1.6 | 9.7 | 0.00 | 3.45 | 3.45 | 73 | 1013.6 |
| 20260505174850 | 14 | 152 | 1.6 | 6.4 | 0.00 | 3.45 | 3.45 | 72 | 1013.5 |
| 20260505174349 | 14 | 145 | 1.6 | 4.8 | 0.00 | 3.45 | 3.45 | 72 | 1013.5 |
| 20260505173847 | 14 | 145 | 1.6 | 8.0 | 0.00 | 3.45 | 3.45 | 72 | 1013.6 |
| 20260505173345 | 14 | 144 | 3.2 | 9.7 | 0.00 | 3.45 | 3.45 | 71 | 1013.6 |
| 20260505173130 | 14 | 147 | 3.2 | 9.7 | 0.00 | 3.45 | 3.45 | 71 | 1013.6 |
| 20260505172345 | 14 | 150 | 3.2 | 8.0 | 0.00 | 3.45 | 3.45 | 71 | 1013.5 |
| 20260505172137 | 14 | 243 | 3.2 | 8.0 | 0.00 | 3.45 | 3.45 | 71 | 1013.5 |
| 20260505171346 | 15 | 156 | 3.2 | 8.0 | 0.00 | 3.45 | 3.45 | 71 | 1013.5 |
| 20260505170852 | 15 | 156 | 3.2 | 9.7 | 0.00 | 3.45 | 3.45 | 71 | 1013.4 |
| 20260505170417 | 15 | 181 | 3.2 | 9.7 | 0.00 | 3.45 | 3.45 | 71 | 1013.5 |
| 20260505170406 | 15 | 160 | 3.2 | 9.7 | 0.00 | 3.45 | 3.45 | 71 | 1013.5 |
| 20260505165344 | 15 | 160 | 3.2 | 9.7 | 0.00 | 3.45 | 3.45 | 71 | 1013.4 |
| 20260505164844 | 15 | 142 | 1.6 | 9.7 | 0.00 | 3.45 | 3.45 | 71 | 1013.5 |
| 20260505164339 | 15 | 139 | 3.2 | 6.4 | 0.00 | 3.45 | 3.45 | 71 | 1013.4 |
| 20260505163840 | 15 | 128 | 1.6 | 8.0 | 0.00 | 3.45 | 3.45 | 72 | 1013.5 |
| 20260505163341 | 15 | 149 | 3.2 | 8.0 | 0.00 | 3.45 | 3.45 | 72 | 1013.5 |
| 20260505162843 | 15 | 172 | 3.2 | 9.7 | 0.00 | 3.45 | 3.45 | 72 | 1013.5 |
| 20260505162339 | 15 | 204 | 3.2 | 9.7 | 0.00 | 3.45 | 3.45 | 72 | 1013.5 |
| 20260505161839 | 15 | 160 | 1.6 | 6.4 | 0.00 | 3.45 | 3.45 | 72 | 1013.6 |
| 20260505161339 | 15 | 168 | 1.6 | 6.4 | 0.00 | 3.45 | 3.45 | 72 | 1013.7 |
| 20260505160836 | 15 | 180 | 1.6 | 9.7 | 0.00 | 3.45 | 3.45 | 71 | 1013.7 |
| 20260505160622 | 15 | 186 | 1.6 | 9.7 | 0.00 | 3.45 | 3.45 | 72 | 1013.7 |
| 20260505153333 | 15 | 166 | 3.2 | 6.4 | 0.00 | 3.45 | 3.45 | 71 | 1013.9 |
| 20260505152833 | 15 | 198 | 3.2 | 6.4 | 0.00 | 3.45 | 3.45 | 71 | 1013.9 |
| 20260505152617 | 15 | 108 | 1.6 | 6.4 | 0.00 | 3.45 | 3.45 | 71 | 1013.9 |
| 20260505151834 | 15 | 216 | 3.2 | 6.4 | 0.00 | 3.45 | 3.45 | 71 | 1013.9 |
| 20260505151335 | 15 | 145 | 3.2 | 6.4 | 0.00 | 3.45 | 3.45 | 71 | 1013.9 |
| 20260505150833 | 15 | 138 | 3.2 | 6.4 | 0.00 | 3.45 | 3.45 | 71 | 1013.8 |
| 20260505150335 | 15 | 194 | 3.2 | 6.4 | 0.00 | 3.45 | 3.45 | 71 | 1013.8 |
| 20260505140337 | 15 | 189 | 3.2 | 8.0 | 0.00 | 3.45 | 3.45 | 72 | 1013.8 |
| 20260505124813 | 15 | 200 | 4.8 | 11.3 | 0.00 | 3.45 | 3.45 | 72 | 1014.0 |
| 20260505124313 | 15 | 171 | 3.2 | 12.9 | 0.00 | 3.45 | 3.45 | 73 | 1014.0 |
| 20260505124118 | 15 | 197 | 4.8 | 12.9 | 0.00 | 3.45 | 3.45 | 73 | 1014.0 |
| 20260505123309 | 15 | 83 | 4.8 | 12.9 | 0.00 | 3.45 | 3.45 | 75 | 1014.0 |
| 20260505122810 | 15 | 206 | 3.2 | 9.7 | 0.00 | 3.45 | 3.45 | 76 | 1014.0 |
| 20260505122306 | 15 | 171 | 4.8 | 11.3 | 0.00 | 3.45 | 3.45 | 77 | 1014.0 |
| 20260505122047 | 15 | 185 | 4.8 | 11.3 | 0.00 | 3.45 | 3.45 | 78 | 1014.0 |
| 20260505121306 | 15 | 168 | 4.8 | 14.5 | 0.00 | 3.45 | 3.45 | 78 | 1013.9 |
| 20260505120806 | 14 | 175 | 4.8 | 14.5 | 0.00 | 3.45 | 3.45 | 78 | 1014.0 |
| 20260505120304 | 14 | 191 | 4.8 | 12.9 | 0.00 | 3.45 | 3.45 | 77 | 1014.0 |
| 20260505115804 | 14 | 139 | 4.8 | 12.9 | 0.00 | 3.45 | 3.45 | 76 | 1013.9 |
| 20260505115306 | 14 | 174 | 4.8 | 14.5 | 0.00 | 3.45 | 3.45 | 76 | 1014.0 |
| 20260505114804 | 14 | 99 | 4.8 | 14.5 | 0.00 | 3.45 | 3.45 | 76 | 1013.9 |
| 20260505114304 | 14 | 187 | 4.8 | 14.5 | 0.00 | 3.45 | 3.45 | 76 | 1013.9 |
| 20260505113804 | 14 | 83 | 3.2 | 12.9 | 0.00 | 3.45 | 3.45 | 76 | 1013.9 |
| 20260505113622 | 14 | 144 | 3.2 | 16.1 | 0.00 | 3.45 | 3.45 | 76 | 1014.0 |
| 20260505113618 | 14 | 131 | 4.8 | 16.1 | 0.00 | 3.45 | 3.45 | 76 | 1014.0 |
| 20260505112305 | 14 | 158 | 3.2 | 14.5 | 0.00 | 3.45 | 3.45 | 76 | 1014.0 |
| 20260505111803 | 14 | 109 | 3.2 | 8.0 | 0.00 | 3.45 | 3.45 | 76 | 1013.9 |
| 20260505111304 | 14 | 179 | 4.8 | 12.9 | 0.00 | 3.45 | 3.45 | 76 | 1013.9 |
| 20260505110811 | 14 | 135 | 6.4 | 16.1 | 0.00 | 3.45 | 3.45 | 74 | 1013.8 |
| 20260505110259 | 14 | 133 | 6.4 | 16.1 | 0.00 | 3.45 | 3.45 | 74 | 1013.8 |
| 20260505101755 | 15 | 156 | 3.2 | 11.3 | 0.00 | 3.45 | 3.45 | 72 | 1013.6 |
| 20260505101248 | 15 | 156 | 3.2 | 11.3 | 0.00 | 3.45 | 3.45 | 72 | 1013.6 |
| 20260505100751 | 15 | 209 | 3.2 | 8.0 | 0.00 | 3.45 | 3.45 | 72 | 1013.6 |
| 20260505100344 | 15 | 211 | 1.6 | 6.4 | 0.00 | 3.45 | 3.45 | 79 | 1013.5 |
| 20260505100324 | 15 | 211 | 1.6 | 6.4 | 0.00 | 3.45 | 3.45 | 75 | 1013.6 |
| 20260505095538 | 14 | 203 | 1.6 | 6.4 | 0.00 | 3.45 | 3.45 | 80 | 1013.5 |
| 20260505094743 | 14 | 214 | 1.6 | 6.4 | 0.00 | 3.45 | 3.45 | 80 | 1013.4 |
| 20260505094243 | 13 | 214 | 1.6 | 6.4 | 0.00 | 3.45 | 3.45 | 81 | 1013.4 |
| 20260505093743 | 13 | 326 | 1.6 | 3.2 | 0.00 | 3.45 | 3.45 | 81 | 1013.4 |
| 20260505093246 | 13 | 326 | 1.6 | 3.2 | 0.00 | 3.45 | 3.45 | 81 | 1013.4 |
| 20260505093029 | 13 | 326 | 1.6 | 4.8 | 0.00 | 3.45 | 3.45 | 81 | 1013.4 |
| 20260505092526 | 13 | 326 | 3.2 | 4.8 | 0.00 | 3.45 | 3.45 | 81 | 1013.4 |
| 20260505092036 | 13 | 309 | 1.6 | 4.8 | 0.00 | 3.45 | 3.45 | 81 | 1013.5 |
| 20260505091238 | 13 | 292 | 1.6 | 6.4 | 0.00 | 3.45 | 3.45 | 81 | 1013.5 |
| 20260505091032 | 13 | 292 | 1.6 | 6.4 | 0.00 | 3.45 | 3.45 | 81 | 1013.5 |
| 20260505090237 | 13 | 8 | 1.6 | 3.2 | 0.00 | 3.45 | 3.45 | 81 | 1013.5 |
| 20260505085735 | 13 | 8 | 1.6 | 3.2 | 0.00 | 3.45 | 3.45 | 81 | 1013.5 |
| 20260505085519 | 13 | 8 | 1.6 | 4.8 | 0.00 | 3.45 | 3.45 | 81 | 1013.4 |
| 20260505084737 | 13 | 9 | 1.6 | 4.8 | 0.00 | 3.45 | 3.45 | 81 | 1013.4 |
| 20260505084234 | 12 | 347 | 1.6 | 3.2 | 0.00 | 3.45 | 3.45 | 81 | 1013.4 |
| 20260505083733 | 12 | 347 | 1.6 | 3.2 | 0.00 | 3.45 | 3.45 | 81 | 1013.3 |
| 20260505083512 | 12 | 347 | 1.6 | 4.8 | 0.00 | 3.45 | 3.45 | 81 | 1013.3 |
| 20260505082731 | 12 | 347 | 1.6 | 4.8 | 0.00 | 3.45 | 3.45 | 81 | 1013.2 |
| 20260505082229 | 12 | 29 | 1.6 | 3.2 | 0.00 | 3.45 | 3.45 | 81 | 1013.2 |
| 20260505081737 | 12 | 29 | 0.0 | 3.2 | 0.00 | 3.45 | 3.45 | 81 | 1013.1 |
| 20260505081230 | 12 | 29 | 1.6 | 4.8 | 0.03 | 3.45 | 3.45 | 81 | 1013.0 |
| 20260505080729 | 12 | 29 | 1.6 | 4.8 | 0.03 | 3.45 | 3.45 | 81 | 1013.1 |
| 20260505080230 | 12 | 30 | 0.0 | 4.8 | 0.03 | 3.45 | 3.45 | 81 | 1013.1 |
| 20260505075727 | 12 | 147 | 0.0 | 3.2 | 0.05 | 3.43 | 3.45 | 81 | 1013.2 |
| 20260505075225 | 12 | 147 | 1.6 | 4.8 | 0.05 | 3.43 | 3.45 | 81 | 1013.3 |
| 20260505074727 | 12 | 147 | 1.6 | 4.8 | 0.05 | 3.43 | 3.45 | 81 | 1013.4 |
| 20260505074220 | 12 | 148 | 1.6 | 4.8 | 0.05 | 3.43 | 3.45 | 81 | 1013.4 |
| 20260505074005 | 12 | 148 | 1.6 | 4.8 | 0.05 | 3.43 | 3.45 | 81 | 1013.4 |
| 20260505073521 | 12 | 75 | 0.0 | 3.2 | 0.10 | 3.43 | 3.45 | 81 | 1013.4 |
| 20260505072717 | 12 | 52 | 0.0 | 3.2 | 0.15 | 3.43 | 3.45 | 81 | 1013.4 |
| 20260505072217 | 12 | 52 | 1.6 | 3.2 | 0.25 | 3.43 | 3.45 | 81 | 1013.4 |
| 20260505071711 | 12 | 52 | 1.6 | 3.2 | 0.43 | 3.43 | 3.45 | 81 | 1013.3 |
| 20260505071455 | 12 | 52 | 1.6 | 3.2 | 0.64 | 3.43 | 3.43 | 80 | 1013.2 |
| 20260505070708 | 12 | 52 | 1.6 | 4.8 | 0.97 | 3.43 | 3.43 | 80 | 1013.2 |